• In Hungary
  • List of Countries
  • For 7 days
  • Water Temperature
  • Satellite Maps
  • Weather Map
  • News
  • Weather Widgets
  • user-avatar
    Login

    Hourly Weather Madaba

    Today, 21 July, Saturday

    Time Temperature Precipitation Wind Pressure Humidity
    00:00 +23°C° 0 mm 4 mps 693 mmHg 53%
    01:00 +23°C° 0 mm 4 mps 693 mmHg 56%
    02:00 +22°C° 0 mm 4 mps 693 mmHg 58%
    03:00 +22°C° 0 mm 3 mps 693 mmHg 61%
    04:00 +22°C° 0 mm 3 mps 693 mmHg 64%
    05:00 +21°C° 0 mm 3 mps 693 mmHg 67%
    06:00 +22°C° 0 mm 3 mps 693 mmHg 63%
    07:00 +24°C° 0 mm 3 mps 693 mmHg 59%
    08:00 +25°C° 0 mm 3 mps 694 mmHg 53%
    09:00 +27°C° 0 mm 4 mps 694 mmHg 47%
    10:00 +28°C° 0 mm 4 mps 694 mmHg 42%
    11:00 +29°C° 0 mm 4 mps 694 mmHg 36%
    12:00 +30°C° 0 mm 5 mps 694 mmHg 34%
    13:00 +32°C° 0 mm 5 mps 694 mmHg 31%
    14:00 +32°C° 0 mm 5 mps 693 mmHg 31%
    15:00 +32°C° 0 mm 5 mps 693 mmHg 33%
    16:00 +30°C° 0 mm 6 mps 693 mmHg 34%
    17:00 +30°C° 0 mm 6 mps 693 mmHg 35%
    18:00 +29°C° 0 mm 6 mps 693 mmHg 40%
    19:00 +27°C° 0 mm 5 mps 693 mmHg 45%
    20:00 +26°C° 0 mm 5 mps 693 mmHg 50%
    21:00 +26°C° 0 mm 4 mps 693 mmHg 53%
    22:00 +25°C° 0 mm 4 mps 693 mmHg 57%
    23:00 +24°C° 0 mm 3 mps 693 mmHg 60%

    Tomorrow, 22 July, Sunday

    Time Temperature Precipitation Wind Pressure Humidity
    00:00 +24°C° 0 mm 3 mps 693 mmHg 62%
    01:00 +22°C° 0 mm 3 mps 693 mmHg 64%
    02:00 +22°C° 0 mm 3 mps 693 mmHg 66%
    03:00 +22°C° 0 mm 3 mps 693 mmHg 68%
    04:00 +21°C° 0 mm 3 mps 693 mmHg 69%
    05:00 +21°C° 0 mm 3 mps 692 mmHg 71%
    06:00 +22°C° 0 mm 3 mps 693 mmHg 66%
    07:00 +24°C° 0 mm 3 mps 693 mmHg 62%
    08:00 +25°C° 0 mm 3 mps 693 mmHg 57%
    09:00 +27°C° 0 mm 4 mps 693 mmHg 52%
    10:00 +28°C° 0 mm 4 mps 693 mmHg 47%
    11:00 +30°C° 0 mm 4 mps 693 mmHg 42%
    12:00 +32°C° 0 mm 4 mps 693 mmHg 39%
    13:00 +32°C° 0 mm 5 mps 693 mmHg 37%
    14:00 +33°C° 0 mm 5 mps 693 mmHg 34%
    15:00 +33°C° 0 mm 5 mps 692 mmHg 36%
    16:00 +33°C° 0 mm 6 mps 692 mmHg 37%
    17:00 +32°C° 0 mm 6 mps 692 mmHg 38%
    18:00 +30°C° 0 mm 5 mps 692 mmHg 42%
    19:00 +29°C° 0 mm 5 mps 692 mmHg 46%
    20:00 +28°C° 0 mm 4 mps 692 mmHg 50%
    21:00 +27°C° 0 mm 4 mps 692 mmHg 52%
    22:00 +27°C° 0 mm 3 mps 692 mmHg 55%
    23:00 +26°C° 0 mm 3 mps 692 mmHg 57%

    Day after tomorrow, 23 July, Monday

    Time Temperature Precipitation Wind Pressure Humidity
    00:00 +26°C° 0 mm 3 mps 692 mmHg 59%
    01:00 +25°C° 0 mm 3 mps 692 mmHg 61%
    02:00 +25°C° 0 mm 3 mps 692 mmHg 63%
    03:00 +25°C° 0 mm 3 mps 691 mmHg 66%
    04:00 +24°C° 0 mm 3 mps 691 mmHg 68%
    05:00 +24°C° 0 mm 3 mps 691 mmHg 70%
    06:00 +25°C° 0 mm 3 mps 692 mmHg 65%
    07:00 +26°C° 0 mm 4 mps 692 mmHg 61%
    08:00 +27°C° 0 mm 4 mps 692 mmHg 56%
    09:00 +29°C° 0 mm 4 mps 692 mmHg 50%
    10:00 +30°C° 0 mm 4 mps 692 mmHg 44%
    11:00 +33°C° 0 mm 5 mps 692 mmHg 38%
    12:00 +33°C° 0 mm 5 mps 692 mmHg 36%
    13:00 +34°C° 0 mm 5 mps 692 mmHg 34%
    14:00 +35°C° 0 mm 6 mps 692 mmHg 32%
    15:00 +35°C° 0 mm 6 mps 691 mmHg 33%
    16:00 +34°C° 0 mm 6 mps 691 mmHg 33%
    17:00 +34°C° 0 mm 5 mps 691 mmHg 34%
    18:00 +33°C° 0 mm 5 mps 691 mmHg 36%
    19:00 +32°C° 0 mm 4 mps 691 mmHg 38%
    20:00 +30°C° 0 mm 3 mps 692 mmHg 40%
    21:00 +29°C° 0 mm 3 mps 692 mmHg 42%
    22:00 +28°C° 0 mm 2 mps 692 mmHg 44%
    23:00 +28°C° 0 mm 2 mps 692 mmHg 45%

    24 July, Tuesday

    Time Temperature Precipitation Wind Pressure Humidity
    00:00 +27°C° 0 mm 2 mps 691 mmHg 47%
    01:00 +27°C° 0 mm 2 mps 691 mmHg 48%
    02:00 +26°C° 0 mm 2 mps 691 mmHg 49%
    03:00 +26°C° 0 mm 2 mps 691 mmHg 49%
    04:00 +25°C° 0 mm 2 mps 691 mmHg 50%
    05:00 +25°C° 0 mm 2 mps 691 mmHg 50%
    06:00 +26°C° 0 mm 2 mps 691 mmHg 46%
    07:00 +27°C° 0 mm 2 mps 692 mmHg 41%
    08:00 +29°C° 0 mm 3 mps 692 mmHg 37%
    09:00 +30°C° 0 mm 3 mps 692 mmHg 32%
    10:00 +33°C° 0 mm 3 mps 693 mmHg 28%
    11:00 +34°C° 0 mm 4 mps 693 mmHg 24%
    12:00 +35°C° 0 mm 4 mps 693 mmHg 23%
    13:00 +36°C° 0 mm 4 mps 692 mmHg 22%
    14:00 +37°C° 0 mm 4 mps 692 mmHg 21%
    15:00 +36°C° 0 mm 5 mps 692 mmHg 22%
    16:00 +36°C° 0 mm 5 mps 692 mmHg 24%
    17:00 +35°C° 0 mm 6 mps 692 mmHg 26%
    18:00 +34°C° 0 mm 5 mps 692 mmHg 29%
    19:00 +33°C° 0 mm 4 mps 693 mmHg 31%
    20:00 +31°C° 0 mm 3 mps 693 mmHg 34%
    21:00 +30°C° 0 mm 3 mps 693 mmHg 36%
    22:00 +29°C° 0 mm 3 mps 693 mmHg 38%
    23:00 +28°C° 0 mm 2 mps 693 mmHg 40%

    25 July, Wednesday

    Time Temperature Precipitation Wind Pressure Humidity
    00:00 +28°C° 0 mm 2 mps 693 mmHg 42%
    01:00 +27°C° 0 mm 2 mps 692 mmHg 43%
    02:00 +27°C° 0 mm 2 mps 692 mmHg 45%
    03:00 +26°C° 0 mm 2 mps 692 mmHg 46%
    04:00 +26°C° 0 mm 2 mps 692 mmHg 47%
    05:00 +26°C° 0 mm 2 mps 692 mmHg 48%
    06:00 +27°C° 0 mm 2 mps 693 mmHg 41%
    07:00 +29°C° 0 mm 2 mps 693 mmHg 35%
    08:00 +31°C° 0 mm 2 mps 694 mmHg 28%
    09:00 +34°C° 0 mm 2 mps 694 mmHg 24%
    10:00 +35°C° 0 mm 2 mps 694 mmHg 20%
    11:00 +37°C° 0 mm 2 mps 694 mmHg 16%
    12:00 +38°C° 0 mm 3 mps 694 mmHg 15%
    13:00 +38°C° 0 mm 3 mps 693 mmHg 14%
    14:00 +40°C° 0 mm 4 mps 693 mmHg 13%
    15:00 +40°C° 0 mm 4 mps 693 mmHg 14%
    16:00 +38°C° 0 mm 4 mps 693 mmHg 15%
    17:00 +39°C° 0 mm 5 mps 693 mmHg 16%
    18:00 +37°C° 0 mm 4 mps 693 mmHg 19%
    19:00 +35°C° 0 mm 3 mps 693 mmHg 21%
    20:00 +34°C° 0 mm 2 mps 693 mmHg 23%
    21:00 +32°C° 0 mm 2 mps 693 mmHg 25%
    22:00 +31°C° 0 mm 1 mps 693 mmHg 26%
    23:00 +28°C° 0 mm 0 mps 693 mmHg 27%

    26 July, Thursday

    Time Temperature Precipitation Wind Pressure Humidity
    00:00 +30°C° 0 mm 1 mps 693 mmHg 28%
    01:00 +29°C° 0 mm 1 mps 692 mmHg 28%
    02:00 +29°C° 0 mm 1 mps 692 mmHg 28%
    03:00 +28°C° 0 mm 1 mps 692 mmHg 29%
    04:00 +28°C° 0 mm 1 mps 693 mmHg 30%
    05:00 +28°C° 0 mm 1 mps 693 mmHg 30%
    06:00 +29°C° 0 mm 1 mps 693 mmHg 27%
    07:00 +31°C° 0 mm 2 mps 694 mmHg 24%
    08:00 +32°C° 0 mm 2 mps 694 mmHg 22%
    09:00 +34°C° 0 mm 2 mps 694 mmHg 20%
    10:00 +36°C° 0 mm 3 mps 694 mmHg 18%
    11:00 +37°C° 0 mm 3 mps 694 mmHg 17%
    12:00 +38°C° 0 mm 4 mps 694 mmHg 16%
    13:00 +38°C° 0 mm 4 mps 694 mmHg 16%
    14:00 +40°C° 0 mm 4 mps 694 mmHg 16%
    15:00 +39°C° 0 mm 5 mps 694 mmHg 17%
    16:00 +39°C° 0 mm 5 mps 694 mmHg 18%
    17:00 +37°C° 0 mm 5 mps 694 mmHg 19%
    18:00 +36°C° 0 mm 4 mps 694 mmHg 21%
    19:00 +35°C° 0 mm 4 mps 694 mmHg 23%
    20:00 +34°C° 0 mm 3 mps 694 mmHg 26%
    21:00 +33°C° 0 mm 3 mps 694 mmHg 27%
    22:00 +31°C° 0 mm 2 mps 694 mmHg 28%
    23:00 +30°C° 0 mm 2 mps 694 mmHg 29%
    Show more